This is the latest recevied weather packets stored in our database for station/object DD3UTS-13. If no packets are shown the sender has not sent any weather packets the latest 10 day(s).
| Time | Temp. | Humidity | Pressure | Rain* | Wind** | Luminosity | Snow |
|---|---|---|---|---|---|---|---|
| 1778071832 | 18.89° C | 56% | 1005.3 hPa | 0 mm | - | 405 W/m² | - |
| 1778071532 | 18.33° C | 54% | 1005.4 hPa | 0 mm | - | 364 W/m² | - |
| 1778071232 | 18.33° C | 58% | 1005.5 hPa | 0 mm | - | 380 W/m² | - |
| 1778070932 | 18.33° C | 57% | 1005.4 hPa | 0 mm | - | 303 W/m² | - |
| 1778070632 | 18.33° C | 56% | 1005.3 hPa | 0 mm | - | 251 W/m² | - |
| 1778070332 | 18.33° C | 56% | 1005.4 hPa | 0 mm | - | 263 W/m² | - |
| 1778070032 | 18.33° C | 56% | 1005.4 hPa | 0 mm | - | 314 W/m² | - |
| 1778069732 | 18.89° C | 56% | 1005.5 hPa | 0 mm | - | 356 W/m² | - |
| 1778069432 | 18.89° C | 55% | 1005.4 hPa | 0 mm | - | 477 W/m² | - |
| 1778069132 | 18.89° C | 56% | 1005.4 hPa | 0 mm | - | 512 W/m² | - |
| 1778068832 | 18.89° C | 55% | 1005.4 hPa | 0 mm | - | 432 W/m² | - |
| 1778068532 | 19.44° C | 54% | 1005.4 hPa | 0 mm | - | 558 W/m² | - |
| 1778068232 | 19.44° C | 55% | 1005.4 hPa | 0 mm | - | 698 W/m² | - |
| 1778067932 | 18.89° C | 54% | 1005.3 hPa | 0 mm | - | 596 W/m² | - |
| 1778067631 | 19.44° C | 54% | 1005.3 hPa | 0 mm | - | 594 W/m² | - |
| 1778067332 | 19.44° C | 55% | 1005.4 hPa | 0 mm | - | 631 W/m² | - |
| 1778067032 | 18.89° C | 56% | 1005.4 hPa | 0 mm | - | 607 W/m² | - |
| 1778066732 | 18.33° C | 56% | 1005.4 hPa | 0 mm | - | 641 W/m² | - |
| 1778066432 | 18.33° C | 57% | 1005.5 hPa | 0 mm | - | 608 W/m² | - |
| 1778066131 | 18.33° C | 58% | 1005.4 hPa | 0 mm | - | 426 W/m² | - |
| 1778065831 | 18.33° C | 59% | 1005.6 hPa | 0 mm | - | 620 W/m² | - |
| 1778065532 | 18.33° C | 61% | 1005.6 hPa | 0 mm | - | 596 W/m² | - |
| 1778065232 | 18.33° C | 61% | 1005.5 hPa | 0 mm | - | 596 W/m² | - |
| 1778064632 | 18.33° C | 60% | 1005.5 hPa | 0 mm | - | 515 W/m² | - |
| 1778064332 | 18.33° C | 61% | 1005.7 hPa | 0 mm | - | 551 W/m² | - |
* Rain latest 24 hours (hover to see other rain measurements)
** Current wind speed in m/s (hover to see current wind gust speed)